Location: Bemmer
(51.5498°N, 5.6249°E)
Time: 17:41:58
(UTC+00:00)

USA 186 - Pass Details

Date: 03 March 2021
Orbit: 261 x 430 km, 96.9° (Epoch: 11 April)

Event Time Altitude Azimuth Distance (km) Brightness Sun altitude
Exits shadow 18:28:29 21° 79° (E) 722 2.3 -11.2°
Maximum altitude 18:28:45 22° 68° (ENE) 714 2.4 -11.2°
Drops below altitude 10° 18:30:48 10° 14° (NNE) 1,190 3.9 -11.5°
Sets 18:32:56 0° 358° (N) 2,059 5.3 -11.9°
